Location: Haieshausen
(51.8387°N, 9.9720°E)
Time: 03:06:56
(UTC+00:00)

IRS-P3 - Pass Details

Date: 14 July 2020
Orbit: 814 x 818 km, 98.8° (Epoch: 10 August)

Event Time Altitude Azimuth Distance (km) Brightness Sun altitude
Rises 01:48:18 0° 17° (NNE) 3,355 9.0 -10.2°
Reaches altitude 10° 01:50:41 10° 21° (NNE) 2,419 8.1 -10.0°
Maximum altitude 01:56:00 64° 103° (ESE) 902 4.5 -9.6°
Drops below altitude 10° 02:01:18 10° 185° (S) 2,405 6.1 -9.1°
Enters shadow 02:01:59 - 186° (S) 2,674 6.3 -9.0°
